Regional Weather Roundup
Issued by NWS Upton, NY

Current Version | Previous Version | Text Only | Print | Product List | Glossary Off
Versions: 1 2 3 4 5 6 7 8 9 10 11 12 13 14 15 16 17 18 19 20 21 22 23 24 25 26 27

000
ASUS41 KOKX 221709
RWROKX

REGIONAL WEATHER ROUNDUP
NATIONAL WEATHER SERVICE NEW YORK NY
100 PM EDT MON MAY 22 2017

NOTE: "FAIR" INDICATES FEW OR NO CLOUDS BELOW 12,000 FEET WITH NO
SIGNIFICANT WEATHER AND/OR OBSTRUCTIONS TO VISIBILITY.

NYZ071-072-176-178-NJZ106-104-221800-
NEW YORK CITY METRO AREA

CITY           SKY/WX    TMP DP  RH WIND       PRES   REMARKS
Central Park   CLOUDY    57  56  96 VRB3      30.11S
Wall St Helipt CLOUDY    57  55  94 VRB5      30.09S
Bronx Bot Gard   N/A     55  54  94 SE3       30.09F
LaGuardia APRT LGT RAIN  60  55  83 E7        30.07F
Kennedy INTL   RAIN      57  57 100 SE12      30.08F FOG
Breezy Point     N/A     55 N/A N/A SE10G16     N/A
Newark/Liberty LGT RAIN  57  56  96 E8        30.07F
Teterboro      DRIZZLE   57  56  96 E5        30.07F FOG
$$

NYZ177-179-078>081-221800-
LONG ISLAND NEW YORK

CITY           SKY/WX    TMP DP  RH WIND       PRES   REMARKS
Jones Beach      N/A     55 N/A N/A SE13G18     N/A
Matinecock PT    N/A     55 N/A N/A E5          N/A
Farmingdale    RAIN      56  55  97 SE13G18   30.09F FOG
MacArthur/ISP  LGT RAIN  55  55 100 SE12      30.09F FOG
Shirley        LGT RAIN  54  54 100 SE12G18   30.10F FOG
Mt Sinai Harb    N/A     55 N/A N/A SE6         N/A
Westhampton    LGT RAIN  54  51  90 SE10G18   30.13F FOG
East Hampton   LGT RAIN  52  50  94 SE7       30.13S
Montauk          N/A     53  49  86 VRB7      30.16S
$$

NYZ052-065-067-221800-
HUDSON VALLEY

CITY           SKY/WX    TMP DP  RH WIND       PRES   REMARKS
White Plains   LGT RAIN  54  53  97 E6        30.08F FOG
Larchmont Harb   N/A     55 N/A N/A NE7         N/A
Croton O-T Hud   N/A     55 N/A N/A S1          N/A
Newburgh       NOT AVBL
Montgomery     CLOUDY    58  51  78 CALM      30.07F
Poughkeepsie   CLOUDY    58  50  75 SE6       30.06F
Albany         CLOUDY    60  49  66 S18G28    30.03F
$$

NJZ001-105-106-008-010-013-015-019>022-104-221800-
NEW JERSEY

CITY           SKY/WX    TMP DP  RH WIND       PRES   REMARKS
Newark/Liberty LGT RAIN  57  56  96 E8        30.07F
Teterboro      DRIZZLE   57  56  96 E5        30.07F FOG
Caldwell       CLOUDY    58  55  90 CALM      30.08F FOG
Somerville     LGT RAIN  58  56  93 E3        30.04F FOG
Linden         RAIN      57  55  92 SE6       30.07F
Perth Amboy      N/A     57 N/A N/A E7          N/A
Sussex         LGT RAIN  57  54  89 CALM      30.07F
Andover        NOT AVBL
Trenton        LGT RAIN  59  58  96 CALM      30.05F
Millville      HVY RAIN  61  61 100 E3        30.04F FOG
Atlantic City  HVY RAIN  63  61  93 S7        30.04F VSB 3/4
Wrightstown    LGT RAIN  61  59  94 SE6       30.02F FOG
Toms River     RAIN      60  59  96 NE3       30.06F FOG
Belmar         RAIN      58  57  97 SE7       30.07F FOG
$$

PAZ047>061-062-071-221800-
EASTERN PENNSYLVANIA

CITY           SKY/WX    TMP DP  RH WIND       PRES   REMARKS
Philadelphia   RAIN      61  58  90 CALM      30.05S FOG
Allentown      LGT RAIN  58  54  86 E5        30.05F FOG
Scranton       CLOUDY    62  55  77 VRB5      30.02F
$$

CTZ002-004>006-009-010-012-RIZ004-006-007-MAZ004-011-015-221800-
SOUTHERN NEW ENGLAND
 IN CT

CITY           SKY/WX    TMP DP  RH WIND       PRES   REMARKS
Bradley INTL   CLOUDY    57  47  69 SE10      30.11F
Hartford       CLOUDY    58  47  66 SE9       30.10F
Danbury        CLOUDY    54  53  97 SE7       30.10F FOG
Wtrbury/Oxford LGT RAIN  54  46  76 S9        30.12F
Bridgeport     LGT RAIN  56  53  90 E8        30.11F FOG
Meriden        CLOUDY    56  49  77 S8        30.11F
New Haven      CLOUDY    54  51  90 SE6       30.12F FOG
Chester        LGT RAIN  54  50  87 SE7       30.12F
Groton         CLOUDY    55  48  77 SE14      30.13F
Wilimantic     CLOUDY    58  45  62 S8        30.13F

 IN RI

CITY           SKY/WX    TMP DP  RH WIND       PRES   REMARKS
Providence     CLOUDY    56  49  77 S13       30.15F
Block Island   LGT RAIN  54  49  83 SE12      30.15F
Westerly       CLOUDY    56  50  80 S12       30.15F
 IN MA

CITY           SKY/WX    TMP DP  RH WIND       PRES   REMARKS
Boston         CLOUDY    50  46  86 E8        30.17F
Worcester      CLOUDY    50  39  66 S9        30.13F
Westfield      CLOUDY    56  47  71 S13       30.10F
Provincetown   CLOUDY    55  45  68 S9        30.19F
Nantucket      CLOUDY    54  44  69 SE14      30.19F
$$

ANZ330-335-338-340-345-350-353-355-221800-
COASTAL MARINE OBSERVATIONS


STATION/POSITION TIME  SKY/WX   TEMP    WIND        PRES    VSBY  WAVE
                                AIR SEA DIR/SP/G                  HT/PER
                 (UTC)          (F)     (DEG/KT/KT) (MB)    (MI)  (FT/S)
NY HARB ENTRANCE 1550            56 56  130/ 16/ 19 1018.7          3/ 4
20 S FIRE ISLAND 1650            54 54  120/ 16/ 17 1017.8          3/ 4
GREAT SOUTH BAY  1615            55 65  130/ 14/ 19   N/A
23 SSW MONTAUK P 1550            53 54              1021.0          3/ 4
15 E BARNEGAT LI 1630               56                N/A           3/ 6
HUDSON CANYON    1550            56 54  130/ 12/ 12 1019.3          3/ 5
KINGS POINT      1642            56 57  190/  4/  6 1018.4
EXECUTION ROCKS  1645            57                   N/A
CENTRAL LI SOUND 1615            55     140/ 10/ 12   N/A           1/ 3
EASTERN LI SOUND NOT AVBL
ROBBINS REEF     1642            57     120/  6/ 10 1018.9
$$


>>>>>>>>>>>>>>>>>>>>>>>>>>>> KEY <<<<<<<<<<<<<<<<<<<<<<<<<<<
>                                                          <
>     SKY/WX - Sky Condition/Present Weather               <
>     TMP    - Temperature in Fahrenheit                   <
>     DP     - Dew Point in Fahrenheit                     <
>     RH     - Relative Humidity in Percent                <
>     WIND   - Direction (from) and Speed in MPH           <
>     PRES   - Mean Sea Level Pressure (inches of Hg)      <
>     WCI    - Wind Chill Index                            <
>     VSB    - VISIBILITY IN MILES                         <
>     HX     - HEAT INDEX                                  <
>     TC     - TEMPERATURE IN CELSIUS                      <
>     VRB    - VARIABLE WIND DIRECTION                     <
>                                                          <
>>>>>>>>>>>>>>>>>>>>>>>>>>>> KEY <<<<<<<<<<<<<<<<<<<<<<<<<<<




USA.gov is the U.S. government's official web portal to all federal, state and local government web resources and services.